Погода в Хонуу

Россия / Республика Саха (Якутия)     66°27′18″N   143°13′07″E
темп.,
°C
ветер,
м/с
пор.,
м/с
влажн.,
%
обл.,
%
осадки,
мм/ч
давл.,
гПа
погр.,
м
27 февраля, сб
сб2723:00−34вюв019152 0.0 103219
02:00−34всв009836 0.0 103219
05:00−35з0010041 0.0 103119
08:00−35юв0110060 0.0 103119
11:00−32ю009763 0.0 103123
14:00−30юз119447 0.0 1030120
17:00−30з119644 0.0 102919
20:00−33сз0110042 0.0 102919
28 февраля, вс
вс2823:00−34ююз0110041 0.0 102919
02:00−35ссз0010047 0.0 102819
05:00−35юз1110053 0.0 102619
08:00−35зюз0010091 0.0 102619
11:00−32з119989 0.0 102534
14:00−30з119695 0.0 1024138
17:00−30з119897 0.0 102319
20:00−34ссз1110091 0.0 102419
1 марта, пн
пн123:00−35ссз0110089 0.0 102519
02:00−36зсз0010095 0.0 102419
05:00−37юз0010093 0.0 102419
08:00−38з0010082 0.0 102419
11:00−34зюз119786 0.0 102331
14:00−32зюз119491 0.0 1022147
17:00−32з119689 0.0 102219
20:00−36с009990 0.0 102319
2 марта, вт
вт223:00−37св0010070 0.0 102319
02:00−38юв0110070 0.0 102419
05:00−38юв1110066 0.0 102419
08:00−39юв0010017 0.0 102519
11:00−34ююз009623 0.0 102530
14:00−32юз11903 0.0 1024151
17:00−32з119519 0.0 102419
20:00−35сз119780 0.0 102619
3 марта, ср
ср323:00−34сз009690 0.0 102619
02:00−35с0097100 0.0 102619
05:00−35сз1198100 0.0 102519
08:00−35ссз0098100 0.0 102519
11:00−33зсз1196100 0.0 102495
14:00−31зсз2290100 0.0 1022295
17:00−31сз2391100 0.0 1020355
20:00−33ссз2398100 0.1 102041